Weather History for Conway, SC

Change the Weather History Date:

Thursday, January 17, 2013

  Actual Average Record
Temperature  
Mean Temperature 62 °F -  
Max Temperature 78 °F 55 °F - (-1)
Min Temperature 44 °F 31 °F - (-1)
Degree Days  
Heating Degree Days 3    
Growing Degree Days 12 (Base 50)    
Moisture  
Dew Point 57 °F    
Average Humidity 82    
Maximum Humidity 100    
Minimum Humidity 51    
Precipitation  
Precipitation 0.21 in - - ()
Sea Level Pressure  
Sea Level Pressure 29.91 in    
Wind  
Wind Speed 5 mph (SSW)    
Max Wind Speed 16 mph    
Max Gust Speed 29 mph    
Visibility 6 miles    
Events Fog , Rain    
Averages and records for this station are not official NWS values.
T = Trace of Precipitation, MM = Missing Value Source: NWS Daily Summary

Daily Weather History Graph

Daily Weather History Graph

Search for Another Location

Airport:

Trip Planner

Search our weather history database for the weather conditions in past years. The results will help you decide how hot, cold, wet, or windy it might be!

Date:

Astronomy

Jan. 17, 2013 Rise Set
Actual Time 7:20 AM EST 5:32 PM EST
Civil Twilight 6:53 AM EST 5:59 PM EST
Nautical Twilight 6:23 AM EST 6:30 PM EST
Astronomical Twilight 5:53 AM EST 7:00 PM EST
Moon 10:47 AM EST (1/17) No Moon Set
Length of Visible Light 11h 06m
Length of Day
10h 12m
Waxing Crescent, 37% of the Moon is Illuminated
Jan 17
Waxing Crescent
Jan 18
First Quarter
Jan 26
Full
Feb 3
Last Quarter
Feb 10
New

Hourly Weather History & Observations

Time (EST) Temp. Windchill Dew Point Humidity Pressure Visibility Wind Dir Wind Speed Gust Speed Precip Events Conditions
12:15 AM 55.4 °F - 55.4 °F 100% 29.98 in 7.0 mi Calm Calm - N/A   Clear
12:35 AM 55.4 °F - 55.4 °F 100% 29.98 in 7.0 mi Calm Calm - N/A   Clear
12:55 AM 55.4 °F - 55.4 °F 100% 29.98 in 5.0 mi Calm Calm - N/A   Clear
1:35 AM 59.0 °F - 59.0 °F 100% 29.98 in 7.0 mi South 3.5 mph - N/A   Clear
1:55 AM 59.0 °F - 59.0 °F 100% 29.98 in 7.0 mi South 3.5 mph - N/A   Clear
2:15 AM 59.0 °F - 59.0 °F 100% 29.98 in 7.0 mi South 3.5 mph - N/A   Clear
2:35 AM 60.8 °F - 60.8 °F 100% 29.98 in 5.0 mi SSW 3.5 mph - N/A   Clear
2:55 AM 60.8 °F - 60.8 °F 100% 29.97 in 7.0 mi Calm Calm - N/A   Clear
3:15 AM 59.0 °F - 59.0 °F 100% 29.97 in 5.0 mi SSW 3.5 mph - N/A   Clear
3:35 AM 57.2 °F - 57.2 °F 100% 29.97 in 5.0 mi South 3.5 mph - N/A   Clear
3:55 AM 57.2 °F - 57.2 °F 100% 29.97 in 7.0 mi Calm Calm - N/A   Clear
4:35 AM 55.4 °F - 55.4 °F 100% 29.95 in 0.8 mi Calm Calm - N/A   Mist
4:55 AM 53.6 °F - 53.6 °F 100% 29.95 in 0.2 mi Calm Calm - N/A Fog Fog
5:15 AM 53.6 °F - 53.6 °F 100% 29.96 in 0.5 mi Calm Calm - N/A Fog Fog
5:35 AM 55.4 °F - 55.4 °F 100% 29.96 in 1.0 mi Calm Calm - N/A   Mist
5:55 AM 55.4 °F - 55.4 °F 100% 29.96 in 1.5 mi Calm Calm - N/A   Mist
6:15 AM 53.6 °F - 53.6 °F 100% 29.96 in 4.0 mi Calm Calm - N/A   Clear
6:35 AM 55.4 °F - 55.4 °F 100% 29.97 in 5.0 mi Calm Calm - N/A   Clear
6:55 AM 57.2 °F - 57.2 °F 100% 29.97 in 7.0 mi SSW 3.5 mph - N/A   Clear
7:15 AM 59.0 °F - 59.0 °F 100% 29.97 in 7.0 mi SSW 4.6 mph - N/A   Clear
7:35 AM 59.0 °F - 59.0 °F 100% 29.98 in 5.0 mi South 4.6 mph - N/A   Scattered Clouds
7:55 AM 59.0 °F - 59.0 °F 100% 29.98 in 7.0 mi SSW 4.6 mph - N/A   Mostly Cloudy
8:15 AM 60.8 °F - 60.8 °F 100% 29.98 in 7.0 mi South 5.8 mph - N/A   Scattered Clouds
8:35 AM 62.6 °F - 62.6 °F 100% 29.99 in 4.0 mi South 5.8 mph - N/A   Clear
8:55 AM 62.6 °F - 62.6 °F 100% 29.99 in 5.0 mi SSW 5.8 mph - N/A   Clear
9:15 AM 64.4 °F - 62.6 °F 94% 29.99 in 7.0 mi SSW 4.6 mph - N/A   Clear
9:35 AM 68.0 °F - 62.6 °F 83% 29.99 in 7.0 mi SSW 5.8 mph - N/A   Clear
9:55 AM 69.8 °F - 60.8 °F 73% 29.98 in 5.0 mi South 6.9 mph - N/A   Haze
10:15 AM 71.6 °F - 60.8 °F 69% 29.97 in 7.0 mi SW 6.9 mph - N/A   Clear
10:35 AM 71.6 °F - 59.0 °F 64% 29.96 in 7.0 mi SSW 5.8 mph - N/A   Clear
10:55 AM 73.4 °F - 59.0 °F 61% 29.94 in 7.0 mi South 6.9 mph - N/A   Clear
11:15 AM 75.2 °F - 59.0 °F 57% 29.92 in 7.0 mi SSW 8.1 mph 16.1 mph N/A   Clear
11:35 AM 77.0 °F - 59.0 °F 54% 29.91 in 7.0 mi South 11.5 mph 18.4 mph N/A   Clear
11:55 AM 77.0 °F - 59.0 °F 54% 29.89 in 7.0 mi South 12.7 mph - N/A   Clear
12:15 PM 78.8 °F - 59.0 °F 51% 29.87 in 7.0 mi South 10.4 mph 16.1 mph N/A   Clear
12:35 PM 78.8 °F - 59.0 °F 51% 29.86 in 7.0 mi South 15.0 mph 19.6 mph N/A   Scattered Clouds
12:55 PM 78.8 °F - 59.0 °F 51% 29.84 in 7.0 mi South 11.5 mph 18.4 mph N/A   Scattered Clouds
1:15 PM 78.8 °F - 59.0 °F 51% 29.83 in 7.0 mi SSW 16.1 mph 20.7 mph N/A   Scattered Clouds
1:35 PM 78.8 °F - 59.0 °F 51% 29.81 in 7.0 mi South 13.8 mph 20.7 mph N/A   Scattered Clouds
1:55 PM 77.0 °F - 60.8 °F 57% 29.81 in 7.0 mi South 12.7 mph 19.6 mph N/A   Mostly Cloudy
2:15 PM 77.0 °F - 62.6 °F 61% 29.79 in 7.0 mi SSE 8.1 mph - N/A   Scattered Clouds
2:35 PM 77.0 °F - 62.6 °F 61% 29.78 in 5.0 mi South 10.4 mph 18.4 mph N/A   Haze
2:55 PM 77.0 °F - 62.6 °F 61% 29.77 in 7.0 mi SSE 11.5 mph 16.1 mph N/A   Scattered Clouds
3:15 PM 77.0 °F - 60.8 °F 57% 29.76 in 7.0 mi South 13.8 mph 24.2 mph N/A   Scattered Clouds
3:35 PM 75.2 °F - 60.8 °F 61% 29.75 in 5.0 mi South 11.5 mph 20.7 mph N/A   Haze
3:55 PM 73.4 °F - 59.0 °F 61% 29.76 in 5.0 mi South 11.5 mph - N/A   Haze
4:15 PM 73.4 °F - 60.8 °F 65% 29.76 in 7.0 mi South 15.0 mph 23.0 mph N/A   Overcast
4:35 PM 71.6 °F - 60.8 °F 69% 29.77 in 5.0 mi SSW 9.2 mph 21.9 mph N/A   Haze
4:55 PM 71.6 °F - 60.8 °F 69% 29.77 in 5.0 mi South 10.4 mph - N/A   Haze
5:55 PM 69.8 °F - 60.8 °F 73% 29.73 in 10.0 mi South 12.7 mph - N/A Rain Rain
6:35 PM 57.2 °F - 57.2 °F 100% 29.82 in 7.0 mi WSW 11.5 mph 28.8 mph 0.08 in Rain Rain
7:35 PM 53.6 °F - 53.6 °F 100% 29.86 in 7.0 mi SW 13.8 mph 20.7 mph 0.11 in Rain Light Rain
8:15 PM 50.0 °F - 46.4 °F 87% 29.88 in 7.0 mi WSW 10.4 mph 20.7 mph N/A   Scattered Clouds
8:55 PM 48.2 °F - 44.6 °F 87% 29.91 in 10.0 mi West 8.1 mph 18.4 mph N/A   Clear
9:15 PM 48.2 °F - 42.8 °F 82% 29.93 in 7.0 mi WSW 9.2 mph 23.0 mph N/A   Clear
9:55 PM 48.2 °F - 41.0 °F 76% 29.96 in 7.0 mi WSW 9.2 mph 16.1 mph N/A   Scattered Clouds
10:15 PM 48.2 °F - 41.0 °F 76% 29.96 in 7.0 mi West 13.8 mph 23.0 mph N/A   Overcast
10:35 PM 46.4 °F 41.1 °F 41.0 °F 81% 29.97 in 7.0 mi West 11.5 mph 21.9 mph N/A   Overcast
10:55 PM 44.6 °F 39.7 °F 44.6 °F 100% 30.01 in 7.0 mi NNW 9.2 mph 23.0 mph 0.02 in Rain Light Rain